Newton, KS

6:44 PM CST on November 14, 2019 (GMT -0600)
Newton City County

Weather History for KEWK - August, 2019

Change the Weather History Date:

Friday, August 30, 2019

  Actual Average Record
Temperature  
Mean Temperature 70 °F -  
Max Temperature 77 °F 85 °F 98 °F (2011)
Min Temperature 64 °F 63 °F 55 °F (2017)
Cooling Degree Days 6    
Growing Degree Days 20 (Base 50)    
Moisture  
Dew Point 64 °F    
Average Humidity 81    
Maximum Humidity 97    
Minimum Humidity 69    
Precipitation  
Precipitation 0.29 in - - ()
Sea Level Pressure  
Sea Level Pressure 30.08 in    
Wind  
Wind Speed 15 mph (ENE)    
Max Wind Speed 32 mph    
Max Gust Speed 45 mph    
Visibility 10 miles    
Events Rain , Thunderstorm    
Averages and records for this station are not official NWS values.
T = Trace of Precipitation, MM = Missing Value Source: NWS Daily Summary

Daily Weather History Graph

Daily Weather History Graph

Search for Another Location

Airport or City:

Astronomy

Aug. 30, 2019 Rise Set
Actual Time 6:57 AM CDT 8:01 PM CDT
Civil Twilight 6:29 AM CDT 8:28 PM CDT
Nautical Twilight 5:57 AM CDT 9:01 PM CDT
Astronomical Twilight 5:24 AM CDT 9:34 PM CDT
Moon 7:00 AM CDT (8/30) 8:39 PM CDT (8/30)
Length of Visible Light 13h 58m
Length of Day
13h 04m
New Moon, 0% of the Moon is Illuminated
Aug 30
New Moon
Sep 5
First Quarter
Sep 13
Full
Sep 21
Last Quarter
Sep 28
New

Hourly Weather History & Observations

Time (CDT) Temp. Dew Point Humidity Pressure Visibility Wind Dir Wind Speed Gust Speed Precip Events Conditions
12:16 AM 77.0 °F 68.0 °F 74% 30.04 in 10.0 mi West 29.9 mph 42.6 mph N/A Thunderstorm Squalls
12:23 AM 71.6 °F 62.6 °F 73% 30.03 in 8.0 mi West 31.1 mph 44.9 mph N/A Thunderstorm Thunderstorm
12:40 AM 66.2 °F 64.4 °F 94% 30.06 in 3.0 mi NW 32.2 mph 43.7 mph 0.19 in Rain , Thunderstorm Heavy Thunderstorms and Rain
12:56 AM 66.9 °F 64.0 °F 90% 29.99 in 10.0 mi NW 28.8 mph 38.0 mph 0.27 in Rain , Thunderstorm Thunderstorms and Rain
1:56 AM 71.1 °F 61.0 °F 70% 29.91 in 10.0 mi NE 17.3 mph - 0.02 in Rain Light Rain
2:29 AM 66.2 °F 64.4 °F 94% 29.99 in 10.0 mi NE 17.3 mph 25.3 mph 0.00 in Rain Light Rain
2:56 AM 66.0 °F 64.0 °F 93% 29.98 in 10.0 mi East 10.4 mph 25.3 mph 0.00 in   Clear
3:12 AM 66.2 °F 64.4 °F 94% 30.06 in 10.0 mi SSE 11.5 mph - N/A   Partly Cloudy
3:56 AM 66.9 °F 63.0 °F 87% 30.01 in 10.0 mi ENE 8.1 mph 19.6 mph N/A   Scattered Clouds
4:56 AM 66.0 °F 61.0 °F 84% 30.00 in 10.0 mi SE 10.4 mph - N/A   Partly Cloudy
5:56 AM 64.9 °F 62.1 °F 90% 30.04 in 10.0 mi SW 3.5 mph - N/A   Clear
6:56 AM 64.0 °F 62.1 °F 93% 30.05 in 10.0 mi Calm Calm - N/A   Clear
7:56 AM 64.9 °F 63.0 °F 93% 30.08 in 10.0 mi SW 8.1 mph - N/A   Clear
8:56 AM 66.0 °F 64.0 °F 93% 30.09 in 10.0 mi WNW 3.5 mph - N/A   Partly Cloudy
9:56 AM 68.0 °F 64.0 °F 87% 30.10 in 10.0 mi Calm Calm - N/A   Clear
10:56 AM 71.1 °F 64.0 °F 78% 30.11 in 10.0 mi NE 5.8 mph - N/A   Mostly Cloudy
11:09 AM 71.6 °F 64.4 °F 78% 30.15 in 10.0 mi ENE 4.6 mph - N/A   Overcast
11:56 AM 71.1 °F 63.0 °F 75% 30.11 in 10.0 mi ENE 4.6 mph - N/A   Overcast
12:42 PM 73.4 °F 64.4 °F 73% 30.14 in 10.0 mi East 10.4 mph - N/A   Mostly Cloudy
12:54 PM 73.4 °F 64.4 °F 73% 30.14 in 10.0 mi East 6.9 mph - N/A   Mostly Cloudy
12:56 PM 73.9 °F 64.0 °F 71% 30.10 in 10.0 mi ENE 8.1 mph - N/A   Scattered Clouds
1:03 PM 73.4 °F 64.4 °F 73% 30.14 in 10.0 mi NE 9.2 mph - N/A   Mostly Cloudy
1:12 PM 75.2 °F 64.4 °F 69% 30.14 in 10.0 mi ENE 4.6 mph - N/A   Scattered Clouds
1:20 PM 75.2 °F 64.4 °F 69% 30.13 in 10.0 mi East 6.9 mph - N/A   Mostly Cloudy
1:56 PM 75.0 °F 64.9 °F 71% 30.09 in 10.0 mi NNE 8.1 mph - N/A   Mostly Cloudy
2:56 PM 75.0 °F 66.0 °F 73% 30.09 in 10.0 mi East 8.1 mph - N/A   Scattered Clouds
3:43 PM 75.2 °F 66.2 °F 73% 30.12 in 10.0 mi ENE 11.5 mph 16.1 mph N/A   Mostly Cloudy
3:54 PM 75.2 °F 66.2 °F 73% 30.12 in 10.0 mi East 8.1 mph - N/A   Scattered Clouds
3:56 PM 75.9 °F 66.0 °F 71% 30.09 in 10.0 mi East 8.1 mph - N/A   Scattered Clouds
4:04 PM 75.2 °F 66.2 °F 73% 30.13 in 10.0 mi East 8.1 mph - N/A   Mostly Cloudy
4:43 PM 73.4 °F 64.4 °F 73% 30.13 in 10.0 mi East 8.1 mph - N/A   Scattered Clouds
4:56 PM 73.9 °F 64.9 °F 73% 30.10 in 10.0 mi East 8.1 mph - N/A   Mostly Cloudy
5:52 PM 73.4 °F 64.4 °F 73% 30.13 in 10.0 mi East 8.1 mph 16.1 mph N/A   Partly Cloudy
5:56 PM 73.9 °F 64.9 °F 73% 30.09 in 10.0 mi East 8.1 mph - N/A   Partly Cloudy
6:56 PM 73.0 °F 64.9 °F 76% 30.10 in 10.0 mi East 8.1 mph - N/A   Clear
7:56 PM 70.0 °F 64.9 °F 84% 30.11 in 10.0 mi East 5.8 mph - N/A   Clear
8:56 PM 66.9 °F 64.9 °F 93% 30.11 in 10.0 mi East 4.6 mph - N/A   Clear
9:56 PM 66.9 °F 64.0 °F 90% 30.12 in 10.0 mi East 9.2 mph - N/A   Clear
10:56 PM 66.0 °F 64.0 °F 93% 30.13 in 10.0 mi ESE 9.2 mph - N/A   Clear
11:56 PM 64.9 °F 64.0 °F 97% 30.14 in 10.0 mi ESE 8.1 mph - N/A   Clear